Regional Weather Roundup
Issued by NWS

Home | Current Version | Previous Version | Graphics & Text | Print | Product List | Glossary On
Versions: 1 2 3 4 5 6 7 8 9 10 11 12 13 14 15 16 17 18 19 20 21 22 23 24 25 26 27 28 29 30 31 32 33 34 35 36 37 38 39 40 41 42 43 44 45 46 47 48 49 50
000
ASUS43 KBIS 200010
RWRND

NORTH DAKOTA REGIONAL WEATHER ROUNDUP
NATIONAL WEATHER SERVICE BISMARCK ND
600 PM CST FRI JAN 19 2018

NOTE: "FAIR" INDICATES FEW OR NO CLOUDS BELOW 12,000 FEET WITH NO
SIGNIFICANT WEATHER AND/OR OBSTRUCTIONS TO VISIBILITY.


NDZ001>003-009>011-017-200100-
NORTHWEST NORTH DAKOTA

CITY           SKY/WX    TMP DP  RH WIND       PRES   REMARKS
WILLISTON      MOCLDY    35  27  72 W12       29.65R
6HR MIN TEMP:  35; 6HR MAX TEMP:  39;

MINOT          PTCLDY    37  28  70 W9        29.59R
MINOT AFB      PTCLDY    35  28  77 W12       29.58R
$$

NDZ018>021-031>035-040>046-200100-
SOUTHWEST NORTH DAKOTA

CITY           SKY/WX    TMP DP  RH WIND       PRES   REMARKS
BISMARCK       MOCLDY    39  31  72 W5        29.65R
6HR MIN TEMP:  39; 6HR MAX TEMP:  45;

DICKINSON      MOCLDY    35  32  88 W12       29.64R
GARRISON         N/A     35  27  72 W10       29.62R
6HR MIN TEMP:  35; 6HR MAX TEMP:  40;

HETTINGER ARPT CLOUDY    35  31  85 NW9       29.70R
$$

NDZ004>008-012>016-024-026-027-054-200100-
NORTHEAST NORTH DAKOTA

CITY           SKY/WX    TMP DP  RH WIND       PRES   REMARKS
GRAND FORKS    MOCLDY    35  32  88 W6        29.54S
GRND FRKS AFB  MOCLDY    35  31  85 NW7       29.54S
DEVILS LAKE    FAIR      32  28  85 W9        29.57R
$$

NDZ022-023-025-028>030-036>039-047>053-200100-
SOUTHEAST NORTH DAKOTA

CITY           SKY/WX    TMP DP  RH WIND       PRES   REMARKS
FARGO          FAIR      34  30  85 W7        29.59R
6HR MIN TEMP:  34; 6HR MAX TEMP:  41; 6HR PCP: TRACE;

JAMESTOWN      PTCLDY    37  31  78 W9        29.60R
$$





USA.gov is the U.S. government's official web portal to all federal, state and local government web resources and services.